Theta_e
316 320 322 320 321 322 323 326 328 331 328 326 326 319 317 318 317 319 321 321 319 321 321 318 319 318 318 319 318 317 318 322 324 324 322 325 326 323 326 322 325 324 325 331 333 337 338 341 343 343 343 342 342 343 343 342 342 341 341 339 339 338 334 335 336 336 336 335 335 336 335 336 336 336 337 337 337 337 338 338 339 340 340 340 340 339 337 333 331 330 329 329 329 328 329 329 331
317 322 322 320 321 320 324 329 329 333 330 319 319 319 315 318 319 321 324 324 323 318 320 320 320 320 319 319 317 318 318 320 320 321 323 323 324 324 323 323 325 323 325 331 332 335 337 340 342 343 343 342 342 342 343 342 342 341 340 339 339 336 334 336 336 336 335 334 333 334 334 335 335 335 336 336 336 336 336 336 338 339 339 340 340 339 338 336 333 332 331 331 330 328 327 326 326
318 323 321 320 321 321 332 330 325 333 329 316 319 326 317 316 321 325 326 327 325 318 320 320 319 320 319 321 318 319 322 320 318 324 328 321 323 324 321 324 324 324 325 329 332 333 336 338 340 342 342 342 341 341 342 342 342 341 340 339 337 335 335 337 336 335 334 334 333 334 334 335 335 334 335 334 335 336 336 336 338 339 339 340 339 339 339 337 336 335 334 334 334 332 330 328 326
320 323 320 320 321 327 348 339 336 340 327 319 319 325 323 320 323 327 327 325 323 318 320 319 319 319 317 322 319 318 323 322 317 322 329 322 323 322 321 324 324 325 325 327 332 332 334 337 339 341 341 341 341 341 342 342 341 341 340 339 336 334 336 336 337 335 333 335 334 334 334 335 336 335 335 334 334 334 334 335 338 339 339 340 339 339 338 337 336 335 333 332 333 332 332 331 330
320 323 317 318 323 326 343 334 334 333 320 323 317 318 328 328 325 324 328 323 320 319 320 320 320 317 316 321 320 321 324 321 317 317 322 322 322 322 322 324 324 325 325 327 330 332 333 335 338 340 340 340 340 341 341 341 341 340 340 339 335 334 336 336 336 335 333 336 335 335 335 336 337 337 338 337 335 333 333 335 338 339 339 340 339 338 337 336 334 332 330 327 328 328 327 327 329
320 321 318 317 317 318 330 324 321 324 324 328 317 319 326 325 325 322 326 324 321 319 318 319 319 318 319 321 318 320 321 319 319 319 320 322 323 321 323 323 323 325 326 328 331 332 332 334 337 338 340 339 340 340 340 340 340 340 340 340 335 334 336 335 335 334 334 335 335 336 336 337 338 338 339 339 338 335 334 335 338 338 339 339 338 337 336 334 332 331 329 328 328 328 327 325 324
318 319 323 322 319 321 334 326 323 326 322 321 317 320 322 320 320 318 321 322 321 318 316 319 318 318 319 318 316 317 316 317 320 321 321 323 324 323 323 322 323 325 327 329 331 333 332 334 335 337 340 339 339 340 339 339 339 340 339 340 336 334 336 335 334 334 335 335 334 337 337 337 338 338 339 339 338 337 335 336 338 338 338 338 337 336 334 333 332 331 330 329 330 330 328 326 323
318 320 326 332 334 335 339 327 329 329 317 317 318 320 322 319 316 318 321 319 318 319 318 320 318 320 319 316 320 319 314 318 322 321 321 323 324 323 323 322 323 324 328 330 332 335 333 333 334 336 339 339 339 338 339 338 339 339 339 340 336 334 335 335 334 334 336 334 334 337 337 337 338 338 338 339 339 337 337 337 338 338 338 337 336 335 333 332 332 331 331 331 330 329 324 322 323
317 319 325 331 332 334 336 325 324 324 322 323 320 322 324 319 316 318 321 319 318 320 320 319 318 318 319 319 324 321 316 319 321 321 322 323 324 324 323 323 324 325 327 330 332 334 334 334 334 335 338 338 338 338 339 338 338 339 339 339 337 334 334 335 334 334 335 334 334 336 337 337 337 338 338 338 338 338 337 337 338 338 338 337 335 334 332 332 332 332 331 330 329 326 320 316 318
318 320 324 331 331 326 325 323 322 323 325 324 319 323 322 316 316 318 320 318 317 319 319 317 317 319 319 320 324 319 317 319 320 322 323 323 323 324 324 323 325 326 327 330 332 333 333 334 334 335 337 338 338 338 339 337 337 339 340 339 338 334 333 335 334 334 335 333 333 336 337 336 337 337 338 339 338 339 338 336 336 336 337 336 335 334 333 333 332 331 330 329 326 324 319 310 306
326 329 331 334 329 320 318 322 329 331 328 323 319 322 320 315 316 319 319 316 316 318 318 316 318 322 319 321 326 319 315 318 320 322 321 321 321 322 324 323 325 326 328 329 331 333 333 334 334 334 336 338 338 338 338 338 337 337 339 340 339 336 333 334 334 334 334 333 333 336 337 335 336 336 338 338 338 339 337 335 334 335 336 335 335 334 334 333 331 330 328 327 325 323 321 308 299
325 334 343 342 326 318 320 324 331 336 334 326 319 319 317 315 316 316 317 316 316 318 319 317 316 318 320 323 324 316 313 318 321 320 319 320 319 320 322 323 324 327 330 331 332 333 333 334 334 334 336 338 338 338 339 338 337 337 338 339 339 338 334 333 334 334 334 333 333 335 336 335 336 336 338 338 338 339 337 336 334 334 334 334 334 333 333 332 330 328 326 326 324 323 321 308 298
333 334 338 331 322 323 322 322 328 332 331 322 316 317 313 314 317 316 317 317 316 316 317 317 317 316 318 321 321 321 316 317 321 320 318 319 319 321 323 325 326 328 332 333 333 333 334 334 334 334 336 338 338 338 338 338 338 337 338 339 339 339 336 333 332 334 334 333 332 334 335 335 336 336 337 338 338 338 337 336 335 334 334 334 334 333 333 331 329 327 324 324 322 322 318 304 298
333 336 334 321 318 327 323 319 324 323 321 319 318 318 315 315 317 316 316 317 318 317 313 312 315 317 317 317 325 331 319 314 320 320 318 319 320 322 324 326 327 329 332 333 334 334 334 335 335 335 335 337 338 338 338 338 338 337 338 339 339 339 337 333 332 334 335 333 332 334 335 335 336 336 337 337 338 338 337 336 335 335 334 334 334 333 332 330 328 326 323 322 320 321 315 300 298
325 336 338 325 320 325 321 319 324 322 319 320 316 315 317 316 315 317 316 315 318 315 311 310 312 316 316 314 321 324 316 314 318 318 319 319 319 321 322 323 326 328 330 332 334 335 335 335 335 335 335 336 338 338 338 338 338 338 338 339 339 339 337 334 331 333 335 334 333 334 336 336 336 336 337 337 337 337 337 336 335 335 335 334 333 332 331 329 328 325 323 320 318 318 310 299 298
324 335 332 320 317 317 316 319 323 323 322 322 317 314 317 316 312 315 314 313 315 313 312 314 312 314 315 315 315 314 312 314 315 317 319 319 319 320 320 321 323 325 328 330 332 334 335 336 336 335 335 335 337 338 338 338 338 337 338 339 338 339 338 336 333 332 334 334 334 334 335 336 336 336 337 337 337 336 336 336 336 335 334 333 332 332 330 328 327 325 322 318 316 313 305 298 298
324 333 331 319 317 317 317 321 322 320 325 328 321 315 315 316 314 312 310 311 316 315 315 317 313 312 315 315 313 311 311 313 315 318 319 320 321 321 321 321 322 324 327 329 330 333 335 336 336 336 335 334 336 337 337 338 338 337 337 338 339 339 339 338 335 333 333 334 334 334 335 336 336 336 336 337 336 335 336 336 335 334 333 333 331 330 329 327 326 325 322 318 314 309 300 297 298
331 334 325 319 322 322 323 328 324 318 321 323 318 314 314 316 317 313 311 314 318 317 316 315 313 311 312 312 310 310 311 313 316 318 319 320 321 322 322 322 323 324 326 328 329 330 334 337 337 336 336 335 335 336 337 337 338 338 337 338 339 339 338 338 337 335 334 334 334 335 334 335 335 335 336 336 336 335 335 335 335 334 333 331 329 329 328 326 326 325 322 318 313 307 299 297 298
339 332 316 324 334 326 325 329 325 318 317 318 318 315 314 315 314 312 312 317 319 318 316 315 315 314 312 310 310 310 310 311 315 318 320 319 319 320 320 320 322 323 325 327 327 328 330 333 336 337 337 336 335 335 336 337 337 337 337 337 338 339 338 338 338 337 335 334 334 335 335 334 334 335 335 335 336 336 335 334 334 333 331 329 328 328 327 326 325 324 322 319 313 308 301 297 297
331 325 320 334 334 324 323 325 322 320 316 317 319 314 313 315 313 312 312 316 317 317 317 316 316 314 313 311 307 306 307 308 310 313 315 315 315 315 315 316 316 318 321 324 325 326 327 328 331 335 337 337 337 335 335 336 336 336 336 336 338 340 338 336 338 337 337 336 335 335 335 335 334 334 335 334 334 335 335 334 333 332 329 328 328 328 326 325 325 323 322 319 314 309 302 297 297
319 321 327 332 323 320 322 324 324 321 316 316 317 315 315 315 312 313 313 315 316 316 316 315 314 312 313 311 304 303 305 305 306 307 307 308 308 309 309 310 310 312 314 317 320 323 325 326 328 331 334 336 337 336 335 335 336 336 336 335 338 341 340 338 338 338 337 336 336 335 335 335 334 334 335 335 335 334 335 334 332 330 329 329 329 328 326 325 324 323 322 320 316 312 304 297 296
318 323 329 329 321 318 321 325 323 318 315 315 316 317 316 314 313 314 314 315 315 314 314 312 311 309 308 308 305 304 304 304 304 304 305 305 305 306 307 309 310 310 310 311 313 315 319 322 325 328 331 334 336 336 336 335 336 337 337 336 335 337 341 340 338 337 337 336 335 335 335 335 335 335 334 334 335 335 335 335 332 331 330 329 329 328 327 325 324 323 322 320 318 314 308 300 296
319 324 324 325 321 318 321 322 319 316 315 316 317 314 312 313 314 314 314 314 313 312 312 310 307 305 304 305 305 306 306 304 304 304 304 304 304 305 306 308 311 312 312 312 311 311 312 316 321 325 329 332 334 335 335 335 335 336 337 338 336 335 337 339 337 334 335 336 336 335 335 335 337 337 334 333 334 335 334 334 333 331 329 329 329 329 327 326 324 323 322 321 319 316 313 306 298
319 323 324 321 318 320 323 321 320 316 315 317 315 311 311 315 314 313 313 312 312 310 307 304 304 303 304 305 305 305 305 303 303 304 304 304 304 304 306 308 311 313 314 314 313 312 311 312 316 321 326 330 332 334 334 335 335 336 336 337 337 335 334 336 337 336 335 334 334 335 334 335 336 335 334 333 333 333 333 333 332 330 329 329 329 329 328 326 324 323 322 321 320 318 316 312 304
320 323 324 319 316 321 322 318 318 316 314 313 311 312 314 313 312 312 312 311 310 307 303 303 304 305 305 305 304 303 303 302 303 303 303 303 303 305 307 309 312 314 315 316 315 313 312 313 314 317 322 327 330 332 333 334 335 336 337 337 337 336 334 333 333 334 334 335 334 333 332 334 335 334 334 334 334 333 333 333 331 329 330 329 328 328 327 326 324 323 323 321 321 319 317 314 309
320 322 321 316 316 317 316 315 315 314 314 312 310 314 314 310 310 312 312 309 307 305 305 306 306 306 305 304 303 303 302 302 302 302 302 303 303 305 306 308 311 312 315 318 317 314 313 313 315 316 319 324 328 330 332 333 334 335 336 337 337 337 336 334 332 331 331 333 334 333 332 333 334 334 334 333 333 333 332 331 330 329 329 328 328 327 326 326 325 324 323 322 321 320 318 315 313
317 319 317 315 315 315 315 315 314 311 313 313 312 314 313 309 311 314 312 306 306 310 309 305 306 306 304 303 302 302 301 301 301 301 301 302 302 303 304 306 309 311 314 318 320 319 315 313 315 317 319 322 326 329 331 332 333 334 335 336 336 336 336 335 334 333 332 332 332 331 331 333 333 333 333 331 331 330 329 329 328 328 327 326 326 325 326 326 324 323 323 322 321 319 318 316 314
313 314 314 316 316 314 315 316 313 310 312 314 312 314 313 309 312 315 310 304 309 317 311 305 306 305 303 303 302 301 301 301 301 300 300 300 301 301 302 304 306 310 313 316 321 322 321 318 318 319 320 322 326 329 330 332 332 333 335 335 335 335 334 333 332 331 331 333 333 331 331 333 333 333 332 331 329 328 328 329 328 328 327 326 325 325 325 325 324 324 323 322 321 319 318 317 315
313 313 314 318 317 316 314 313 313 310 313 314 312 315 316 314 315 313 308 305 311 316 311 307 306 304 303 303 301 301 300 300 300 300 300 300 300 301 302 303 305 309 311 315 320 323 324 323 322 322 322 323 326 328 330 331 332 332 333 332 331 331 330 329 329 328 328 330 332 331 331 331 332 332 332 331 331 330 329 330 330 329 328 327 326 326 326 325 324 323 323 322 321 319 318 316 315
313 313 313 316 317 320 314 309 312 311 313 314 312 317 325 327 317 310 309 306 312 316 309 306 305 303 303 302 302 301 300 300 299 299 299 299 300 300 301 303 305 308 311 315 319 322 324 325 325 324 324 325 326 327 329 330 331 332 331 331 330 329 329 328 328 329 329 329 330 330 331 331 331 332 331 331 331 331 329 329 329 329 328 327 326 326 325 324 324 323 322 321 320 319 318 316 315
315 311 315 319 316 324 320 310 313 313 312 311 312 318 325 327 314 308 308 307 315 318 307 305 304 302 302 301 301 301 300 299 299 299 299 299 300 300 301 303 305 308 311 314 317 320 322 324 325 325 325 326 326 327 328 329 330 330 330 330 331 330 330 330 329 329 329 329 329 329 330 330 330 329 329 328 329 329 329 329 328 327 327 327 325 325 324 323 323 322 322 321 320 318 317 317 316
324 314 323 326 316 323 324 313 314 314 311 310 312 318 322 321 313 307 306 309 320 317 306 305 303 302 302 301 301 301 300 299 298 299 299 299 299 300 301 302 304 306 309 312 315 319 321 323 324 325 326 326 327 328 328 328 328 329 329 329 329 329 329 328 326 326 326 326 326 326 326 327 326 326 326 326 326 327 327 327 327 327 326 325 325 324 324 323 322 322 321 320 319 318 317 316 316
328 317 322 327 319 320 321 315 315 314 312 310 312 317 319 318 312 306 304 311 321 314 306 305 303 302 301 300 300 300 299 298 298 298 298 298 298 299 300 300 302 304 307 311 314 317 319 321 323 324 324 325 326 326 327 327 326 326 326 326 326 326 325 324 323 324 324 323 323 323 323 323 323 323 323 322 323 323 323 324 324 324 324 323 323 323 322 322 321 321 320 319 318 318 317 316 315
327 318 317 322 319 317 319 318 316 315 314 313 314 314 316 316 313 308 304 309 317 311 305 304 302 302 301 300 300 299 299 298 297 297 297 298 298 299 299 300 302 304 306 308 311 313 315 317 320 321 322 323 324 324 324 324 324 323 323 322 322 322 321 320 321 322 321 320 320 320 320 321 321 320 320 320 320 320 319 319 320 319 319 319 319 320 320 320 319 319 319 318 317 317 316 315 315
327 323 320 322 319 317 318 318 315 315 316 316 316 316 317 316 314 311 305 306 312 307 303 303 301 301 301 300 300 299 299 298 297 296 296 297 297 298 299 300 301 302 304 306 309 311 313 315 317 319 320 320 321 321 322 322 322 321 320 320 319 318 317 317 318 318 317 317 317 317 317 317 317 317 317 317 317 317 317 317 316 316 316 315 315 315 316 315 316 316 315 316 315 315 315 314 314
323 326 327 327 322 320 319 317 316 314 314 317 316 317 319 317 316 312 305 304 307 304 302 303 301 301 301 300 299 299 298 297 296 295 295 296 296 297 298 299 300 301 302 304 307 309 310 312 314 315 316 317 319 319 319 319 319 318 318 318 315 313 314 314 314 313 312 313 314 314 315 314 314 314 314 314 314 314 314 313 313 314 314 314 313 313 313 313 312 312 312 312 312 312 312 312 311
319 321 323 324 321 320 317 316 319 313 314 320 318 319 320 316 315 310 305 306 305 304 303 302 301 301 300 300 300 299 298 297 295 295 295 295 296 296 297 298 299 300 301 302 304 305 305 308 310 310 311 315 316 316 316 316 315 315 314 313 310 309 310 310 309 308 308 308 309 310 310 310 311 311 311 311 311 311 311 311 311 312 312 312 312 311 310 310 310 310 310 310 309 309 309 308 307
316 316 317 319 319 318 314 314 317 313 315 321 318 319 321 318 314 307 306 309 307 304 303 302 301 301 300 300 299 298 298 296 294 294 294 294 295 295 296 297 298 298 298 299 300 301 303 305 306 306 308 310 310 310 311 311 310 310 309 308 307 306 306 306 305 304 304 305 305 305 305 305 306 307 307 307 308 308 308 308 309 309 309 309 309 309 308 307 307 307 307 307 307 307 307 306 305
314 315 315 317 318 319 319 316 315 314 315 323 321 318 319 318 310 305 305 306 303 301 302 302 301 301 300 300 299 298 297 296 295 293 293 293 293 294 294 295 295 296 297 298 299 301 302 303 303 304 306 306 305 306 306 306 305 306 306 305 305 303 302 302 302 302 303 303 303 303 302 302 302 303 303 303 304 304 304 304 304 305 306 306 307 307 306 305 304 304 304 304 305 305 304 304 303
315 316 316 319 318 320 325 320 317 316 314 318 320 317 318 317 309 305 303 302 302 301 301 301 300 300 299 298 297 297 296 295 294 293 292 292 292 292 293 293 293 294 295 296 298 299 300 301 302 303 304 304 304 304 303 303 303 303 303 302 302 302 301 301 302 301 301 301 301 301 301 301 301 301 301 301 301 301 301 301 301 302 302 303 304 304 304 303 303 303 302 302 302 302 302 301 301
319 319 317 319 320 320 324 321 318 319 317 315 315 318 324 322 316 310 304 303 303 302 302 301 300 300 299 297 296 296 295 294 293 293 292 291 291 291 291 292 292 293 293 294 296 297 298 299 300 301 302 302 302 302 302 303 303 302 302 302 302 302 301 301 300 299 299 299 298 298 298 299 299 299 299 299 299 299 299 299 299 300 300 300 300 301 301 301 301 301 301 301 300 300 300 299 299
324 324 319 319 320 321 321 319 318 323 325 317 312 322 334 329 320 314 307 305 305 303 303 302 301 300 299 298 297 296 295 293 292 292 291 290 290 290 291 291 292 292 292 293 294 296 298 299 300 301 301 301 301 302 302 302 302 302 302 301 299 297 295 294 292 292 294 294 294 295 296 297 297 298 298 298 298 298 298 298 298 298 299 299 298 299 298 298 299 299 299 299 299 299 298 298 298
326 324 320 318 317 318 320 318 319 325 327 315 310 320 330 327 320 313 307 308 305 303 303 302 301 301 300 299 298 296 295 294 292 291 289 289 289 290 290 290 291 291 291 292 293 294 297 298 299 299 300 300 300 300 301 301 301 300 299 297 294 292 289 288 288 289 290 291 292 292 292 293 294 294 295 295 296 296 297 297 297 297 297 297 298 298 297 297 297 297 297 297 298 297 297 297 296
328 321 320 322 319 321 321 320 321 323 322 317 316 318 321 324 320 310 307 310 306 303 303 302 301 301 300 299 297 296 295 294 293 292 290 288 289 289 289 289 290 290 290 291 291 292 294 296 297 298 298 297 298 298 299 299 298 297 295 293 291 289 288 287 288 288 289 289 290 289 289 289 290 290 290 291 292 292 293 294 295 295 296 296 296 296 296 296 297 297 297 296 296 296 296 296 296
325 316 318 322 321 323 323 323 322 318 317 322 323 317 318 326 320 308 307 311 309 306 304 303 301 300 299 298 297 296 295 293 292 291 290 288 288 289 288 289 289 289 289 289 290 291 292 294 295 295 295 294 294 295 296 295 295 294 292 290 289 288 287 288 288 288 288 288 288 288 288 288 287 288 288 288 288 288 289 289 290 291 291 291 292 292 292 293 294 294 295 296 296 296 295 295 296
316 312 316 318 318 321 323 324 323 319 319 325 324 318 320 325 320 311 309 312 312 308 305 303 302 301 300 298 296 295 295 294 291 289 289 288 288 288 288 288 288 288 289 289 290 291 292 293 293 293 292 291 291 292 292 292 291 291 290 289 288 288 288 288 288 288 288 288 288 288 288 287 287 288 287 287 287 287 287 287 287 288 288 288 288 288 288 289 289 289 290 292 293 294 295 295 295
311 315 324 323 320 321 322 323 321 320 325 325 322 320 319 323 324 318 314 314 313 309 306 304 302 302 300 298 297 296 295 294 292 289 288 288 288 288 288 287 288 288 288 290 290 291 292 292 293 291 290 290 290 290 290 290 289 289 289 288 288 288 288 288 288 288 288 288 288 287 287 287 287 287 287 287 287 287 287 287 287 287 287 287 287 287 287 287 287 287 287 288 289 289 290 291 293
315 324 328 324 322 321 322 324 320 323 329 322 317 317 314 321 326 319 314 312 309 308 307 304 302 302 300 299 298 296 295 294 293 291 289 288 288 287 287 287 287 288 288 289 289 290 290 291 291 290 288 288 289 289 289 289 288 288 288 288 288 288 288 288 288 288 288 288 287 287 287 287 287 287 287 287 287 287 287 287 287 287 287 286 286 286 286 286 287 287 287 287 287 287 287 287 288
319 325 327 326 327 326 328 327 320 323 326 315 312 315 313 318 321 316 315 312 305 305 305 303 301 301 300 299 297 296 296 295 293 292 290 288 288 287 287 287 287 287 287 287 288 288 289 289 289 289 288 288 288 288 288 288 288 288 288 288 288 288 288 288 288 287 287 287 287 287 287 287 287 286 286 286 286 286 286 286 286 286 286 285 285 286 286 286 286 286 286 286 286 286 286 286 286
318 323 326 328 329 330 333 330 319 319 320 311 309 313 314 317 317 314 313 309 302 302 304 303 301 300 299 298 297 296 296 295 294 293 290 288 288 287 287 287 287 287 287 287 287 288 288 288 288 288 288 288 288 288 288 288 288 288 288 288 288 288 288 288 288 287 287 287 287 287 286 286 286 286 286 285 285 285 285 285 285 285 285 285 285 285 285 285 285 285 285 285 285 285 285 285 285
317 321 322 324 329 328 328 328 323 320 319 313 309 312 321 322 313 307 305 302 299 300 302 302 301 299 298 297 296 296 295 294 294 293 290 288 289 288 287 287 287 287 287 287 287 287 287 288 288 288 288 288 288 288 288 288 288 288 288 288 288 288 288 288 287 287 287 287 287 287 286 286 286 286 285 285 285 285 285 285 285 285 285 285 284 284 284 284 284 284 284 284 284 284 284 284 284
314 314 317 321 325 323 319 319 318 316 318 317 313 315 322 317 307 301 301 300 299 299 300 301 301 299 297 297 296 296 295 294 294 294 291 288 289 289 288 287 287 287 287 287 287 287 287 287 288 288 288 288 288 288 288 288 288 288 288 288 288 288 288 288 288 287 287 287 287 287 286 286 286 285 285 285 285 285 285 285 285 285 284 284 284 284 283 284 283 283 283 283 283 283 283 283 283
314 313 320 319 316 319 321 316 312 312 317 318 316 318 319 313 307 303 301 301 300 299 299 300 299 298 297 296 295 295 295 295 294 293 290 288 289 289 288 288 287 287 287 287 287 287 287 288 288 288 288 288 288 288 288 288 288 288 288 288 288 288 288 288 288 288 288 287 287 287 287 286 286 286 285 285 284 284 284 284 284 284 284 283 283 283 283 283 283 283 283 282 282 282 282 283 283
317 319 320 314 311 319 322 320 318 316 318 318 316 318 318 317 313 306 302 304 302 299 299 299 298 298 297 296 295 295 295 295 294 292 289 288 290 289 288 288 287 287 287 287 287 287 287 288 288 288 288 288 288 288 288 288 288 288 288 288 288 288 288 288 288 288 288 288 288 287 287 287 286 286 285 285 284 284 284 284 283 283 283 283 283 283 283 282 283 283 282 282 282 282 282 282 282
316 318 314 312 318 322 318 319 322 320 320 322 321 317 315 317 317 313 311 311 306 301 299 299 298 298 297 296 296 295 295 294 294 293 289 288 289 289 288 288 287 287 287 287 287 287 288 288 288 288 288 288 288 288 288 288 288 288 288 288 288 288 288 288 288 288 288 288 288 288 287 287 287 286 286 285 284 284 284 283 283 282 282 282 281 281 281 281 281 281 282 282 282 282 282 282 282
311 312 311 312 318 321 319 318 320 321 320 322 322 318 317 318 318 319 319 313 306 302 299 299 299 297 296 296 295 295 295 294 293 293 290 288 289 290 289 288 288 287 287 288 287 287 288 288 288 288 288 288 288 288 288 288 288 288 288 288 288 288 288 288 288 288 288 288 287 287 287 287 287 287 286 285 285 284 283 283 283 282 282 282 281 281 280 280 280 280 280 281 281 281 281 281 282
315 315 316 315 314 316 318 315 316 320 322 323 321 317 319 320 313 316 318 309 303 301 300 299 298 297 296 296 295 295 294 293 292 292 290 288 289 290 289 288 288 288 288 288 288 288 288 288 288 288 288 288 288 288 288 288 288 288 288 288 288 288 288 288 288 288 287 287 287 287 287 287 286 286 285 285 284 283 283 282 282 282 282 282 281 281 281 281 280 280 280 280 280 280 280 280 281
318 320 319 317 316 316 318 316 314 317 319 322 321 317 320 318 307 308 311 306 302 301 300 300 299 297 297 296 295 294 294 293 292 291 290 288 289 290 290 289 289 289 288 288 288 288 288 288 288 288 288 288 288 288 288 288 288 288 288 287 288 288 288 287 287 287 287 287 286 286 286 286 286 285 284 283 283 282 282 281 281 281 281 281 281 281 281 281 280 280 280 280 280 279 279 279 280
Wind_Speed
9 9 10 8 8 5 3 3 2 2 4 3 1 1 2 3 0 1 3 3 2 2 3 2 2 3 0 1 4 5 4 5 5 3 1 5 3 2 13 10 4 11 22 25 28 30 27 26 23 21 20 20 20 18 17 17 16 15 14 13 11 11 11 12 11 10 10 10 10 10 9 9 8 8 9 8 8 7 8 8 7 7 6 7 9 9 8 9 10 10 9 9 10 10 10 10 10
9 9 9 7 6 3 1 3 3 3 5 3 1 1 3 3 1 3 4 3 4 3 3 3 1 1 2 1 2 1 2 5 5 2 3 5 5 4 12 11 5 9 21 23 26 30 28 27 25 23 21 20 20 19 17 16 16 15 15 13 11 11 12 12 11 11 10 9 9 10 9 8 7 7 7 7 7 6 7 7 7 6 6 7 7 7 7 7 8 8 7 6 6 7 7 7 7
9 8 10 6 3 3 1 3 2 1 5 2 3 4 2 1 3 7 7 7 7 3 4 2 1 0 3 4 1 2 3 4 3 2 4 5 3 2 10 13 6 9 20 22 24 29 28 27 26 24 22 21 20 19 18 17 16 15 14 13 12 12 12 12 11 11 10 10 9 9 8 8 6 5 5 5 6 5 7 7 6 6 6 7 7 7 7 6 6 6 5 3 3 2 2 2 2
8 7 10 4 0 4 4 4 2 4 3 2 2 4 2 2 5 7 7 8 7 3 3 0 0 2 3 2 1 1 3 4 3 4 2 3 1 1 9 14 8 10 19 21 22 27 28 27 26 25 23 22 20 19 18 17 16 15 14 14 13 12 12 12 11 10 10 10 9 9 8 8 6 5 4 4 4 5 6 5 5 5 6 8 7 8 6 4 5 5 3 2 2 3 3 3 3
6 5 8 2 2 2 3 3 2 4 2 4 1 3 4 6 5 6 7 7 5 1 1 2 2 2 2 1 2 1 3 2 3 5 2 4 2 2 8 14 10 11 18 20 20 25 27 27 27 26 24 23 21 20 19 18 17 16 15 14 13 13 12 12 11 10 10 10 10 9 8 7 6 6 5 4 4 4 5 5 5 5 6 7 7 6 3 1 3 3 3 3 5 6 7 7 7
5 3 6 6 3 1 3 3 2 1 4 5 1 4 4 5 6 5 7 8 3 3 2 2 0 1 1 3 2 3 3 0 2 3 3 4 3 2 8 14 12 11 16 20 20 22 26 27 27 26 25 23 21 20 21 19 18 17 16 15 14 14 13 13 12 11 10 10 10 9 8 7 6 6 6 6 5 4 5 6 5 5 6 6 6 3 1 2 3 3 4 8 11 11 11 11 10
6 2 3 5 2 2 4 3 3 1 2 5 2 4 6 5 5 3 7 5 1 1 1 1 1 1 1 3 2 4 4 2 2 2 4 5 4 2 8 13 12 11 14 19 19 21 24 26 27 26 26 24 22 22 22 20 19 18 17 15 15 15 14 14 13 12 11 10 10 9 7 7 6 7 7 7 7 6 7 7 6 6 6 6 4 1 1 3 3 3 7 13 14 15 16 14 12
7 3 0 3 2 4 4 2 3 2 0 3 3 5 7 5 4 1 4 2 1 2 2 2 0 1 2 3 2 5 3 4 5 5 7 6 4 4 9 12 11 11 14 18 19 20 22 25 27 27 26 25 23 22 22 21 20 19 18 16 15 16 15 14 14 13 12 11 11 9 8 7 7 7 7 8 8 7 8 8 7 7 7 5 4 2 1 3 1 4 9 14 16 17 17 15 12
6 4 1 3 2 3 3 1 2 3 3 4 4 5 6 3 4 1 2 3 2 2 4 3 0 0 4 4 3 5 3 3 5 7 7 5 5 5 9 11 10 10 13 16 18 19 21 24 27 27 27 26 24 23 23 21 21 20 18 17 17 17 16 15 15 14 13 12 12 10 9 8 7 7 7 8 8 8 8 9 8 8 8 7 5 4 2 2 5 7 8 14 17 17 17 14 10
5 5 1 3 3 3 3 1 1 2 4 5 5 7 6 2 2 1 1 3 2 1 5 2 1 1 2 3 4 3 4 6 5 4 4 4 5 6 9 11 10 9 11 15 17 18 20 23 26 27 27 26 25 24 23 21 21 21 20 18 18 18 17 17 16 15 14 14 13 11 10 9 8 8 8 8 9 9 8 7 7 7 7 6 5 4 5 7 10 8 9 15 17 16 16 13 8
3 4 2 4 4 2 1 3 3 4 5 5 4 6 6 2 1 1 1 3 2 2 4 1 1 1 0 3 4 2 6 8 4 2 3 4 6 7 9 10 10 9 11 13 15 17 19 21 25 27 27 27 26 25 24 22 21 22 21 19 19 19 18 18 17 16 15 15 15 13 11 10 9 9 9 9 9 10 8 6 5 5 5 5 4 6 8 10 12 11 13 16 17 16 15 13 8
2 3 4 4 3 2 2 2 5 6 7 4 2 2 2 3 2 2 3 3 3 5 5 2 1 2 1 3 4 5 7 6 0 2 3 5 6 7 8 10 10 9 11 12 14 15 17 20 23 26 27 27 26 25 25 23 22 23 23 21 19 19 19 19 18 18 17 16 16 14 12 11 11 10 9 9 10 10 9 6 5 4 4 4 5 7 9 11 14 15 15 16 16 16 15 12 7
2 1 4 3 2 2 2 2 4 5 6 2 1 2 1 3 1 5 3 2 2 4 5 3 2 2 0 3 4 6 7 7 1 3 4 6 6 7 8 9 9 9 10 12 14 14 15 18 20 24 26 27 26 26 25 24 22 22 23 22 20 20 19 19 19 19 17 16 16 15 13 12 12 11 10 10 11 11 9 8 6 5 5 5 7 9 11 12 15 15 15 15 15 15 14 10 6
2 3 4 2 1 2 3 1 2 1 3 3 2 3 2 2 4 5 3 3 4 2 3 2 4 2 1 3 5 5 5 9 3 3 4 6 7 7 8 9 10 10 10 12 13 14 15 16 18 22 25 26 26 26 26 24 23 23 23 22 21 20 19 20 19 19 18 17 17 16 14 14 13 12 11 11 11 11 10 9 7 7 7 7 8 10 12 13 15 15 15 15 15 15 13 8 5
3 2 4 3 2 1 3 0 1 3 3 4 2 3 4 2 3 3 3 1 5 4 2 2 2 0 2 2 5 5 6 11 7 4 5 6 8 8 9 10 11 11 11 12 13 14 15 16 17 20 23 26 27 27 26 26 24 23 23 23 22 20 20 20 19 19 19 17 18 17 16 14 14 13 12 11 12 11 11 10 9 8 8 9 10 11 13 14 14 14 15 14 14 14 11 7 4
3 4 5 3 1 1 2 1 2 3 4 4 2 2 4 5 2 1 3 2 3 3 2 2 2 1 1 2 6 7 9 12 10 8 6 7 8 9 10 11 12 14 14 14 14 15 16 16 17 18 22 25 27 28 27 27 26 24 24 24 23 22 21 20 20 19 19 18 18 18 17 15 14 14 12 12 12 12 12 11 10 9 9 9 11 13 13 14 14 14 14 14 14 12 9 7 4
3 4 5 2 1 1 3 3 3 2 4 6 5 4 3 7 3 1 2 3 2 4 3 5 3 1 5 5 8 12 16 15 11 10 8 7 7 9 11 11 12 14 15 15 14 15 16 18 18 18 20 23 26 28 28 28 27 25 25 24 24 23 21 21 20 19 19 18 19 18 18 17 15 14 13 12 13 13 12 12 12 10 8 9 11 13 14 14 14 15 14 14 13 10 7 6 4
4 4 3 0 2 3 5 6 6 3 3 6 4 4 1 6 5 3 3 2 4 5 5 5 5 5 7 7 11 15 16 15 11 9 10 8 7 7 8 9 9 12 13 14 14 15 17 19 19 20 20 21 24 27 28 28 28 27 26 25 24 24 23 22 21 20 19 19 19 19 18 17 16 16 14 13 14 14 12 13 12 9 9 11 12 13 13 13 15 15 14 14 13 9 7 7 5
4 3 2 2 5 5 5 7 5 3 2 5 5 2 2 4 4 3 3 5 6 7 7 4 5 8 8 9 12 15 15 15 12 10 11 11 11 10 11 11 10 11 12 14 15 16 18 20 21 21 22 21 23 25 27 28 28 27 26 25 25 25 24 22 22 21 20 20 19 19 19 18 17 16 15 14 15 14 13 13 12 10 11 12 11 11 12 13 15 15 14 15 13 9 8 7 5
2 4 1 5 6 4 5 6 6 6 2 5 6 2 2 5 3 1 3 6 6 5 6 4 5 7 8 9 12 16 15 16 16 14 14 14 15 14 14 15 15 15 14 15 16 17 19 21 21 22 23 22 22 24 26 27 27 27 27 25 25 25 25 24 23 23 21 21 20 19 19 18 18 18 16 15 15 16 15 14 13 13 13 12 11 12 12 13 14 15 15 16 14 10 9 8 6
2 3 3 5 3 2 5 6 7 6 2 2 4 4 6 5 2 1 2 5 7 6 5 4 5 7 8 8 11 15 17 18 20 20 18 17 17 16 15 15 15 15 15 17 18 18 19 21 22 23 24 24 23 24 24 25 25 26 26 25 25 24 24 24 23 23 22 21 20 19 19 19 18 17 16 16 16 17 17 16 15 15 12 11 12 13 13 14 15 15 16 16 15 12 10 9 7
2 3 5 5 4 2 5 5 5 3 3 2 3 5 7 4 1 3 0 4 6 3 0 4 5 5 4 7 9 12 16 16 18 20 19 19 19 19 20 19 17 16 14 15 17 18 18 20 22 23 24 24 24 24 24 24 24 24 24 24 24 23 23 24 25 24 23 23 22 19 20 20 19 19 18 17 18 19 18 16 15 14 12 13 15 15 14 15 15 16 17 17 16 14 11 11 9
1 3 3 3 4 3 5 2 3 3 3 3 2 4 3 5 7 3 4 8 4 3 3 2 3 5 8 10 9 10 12 11 14 16 16 18 19 20 22 23 22 20 18 16 15 15 16 17 19 22 23 24 24 23 23 24 24 24 24 23 22 22 22 23 25 24 23 23 22 21 20 20 20 21 20 17 18 19 16 16 15 14 15 17 16 14 15 15 16 17 17 17 17 16 13 12 11
2 3 4 3 4 5 6 3 2 1 1 6 2 4 4 5 7 3 5 6 2 4 5 9 10 13 13 12 10 9 10 11 13 15 15 17 18 18 21 23 23 22 21 19 16 12 11 12 15 19 22 23 23 22 22 23 23 24 24 23 22 22 22 21 21 22 24 22 21 21 20 22 20 19 21 20 18 19 19 19 15 16 19 18 15 14 15 16 16 17 17 18 18 17 16 14 13
3 4 4 2 2 6 6 5 6 4 5 5 1 4 8 8 3 4 8 3 5 4 9 10 10 14 13 11 10 9 10 13 16 17 19 19 20 21 24 25 24 24 24 22 18 11 6 6 9 14 18 20 21 21 21 21 22 22 22 22 22 22 21 20 19 18 20 20 22 22 21 23 21 20 24 21 18 20 20 18 15 17 19 17 13 15 16 17 17 17 17 18 18 18 17 16 14
4 5 3 3 5 6 5 6 6 3 4 1 1 8 8 5 1 4 6 4 3 6 10 7 10 12 10 9 9 9 10 13 17 18 19 22 25 27 28 27 26 26 25 23 20 14 6 2 4 9 13 16 18 19 19 20 20 20 20 19 19 19 18 18 18 16 16 17 20 21 22 24 23 25 24 18 18 19 14 15 17 17 16 14 15 17 18 19 18 17 17 18 18 18 18 17 16
3 3 3 4 7 7 4 6 5 1 4 4 5 10 5 3 2 2 4 4 1 9 10 7 10 10 9 8 8 10 11 13 16 17 20 24 27 27 28 28 27 26 25 24 21 17 10 4 2 4 8 12 15 17 17 18 18 17 18 17 16 16 15 16 16 15 16 18 18 18 20 23 23 25 24 18 17 14 11 14 15 15 14 15 16 17 19 20 18 17 17 17 18 18 18 18 17
2 0 5 6 6 7 4 7 7 0 3 5 7 7 3 2 1 3 4 5 4 11 9 8 11 8 8 8 7 10 11 14 17 18 20 21 22 23 24 26 26 25 25 25 22 18 13 9 5 2 3 7 11 14 14 14 15 15 15 15 15 14 13 15 16 16 17 19 21 20 18 19 20 20 20 15 14 14 14 13 14 16 16 16 16 17 19 20 18 18 17 17 18 19 18 18 19
2 3 5 8 7 7 6 4 4 1 2 4 6 4 4 2 4 2 4 4 7 11 8 9 9 7 7 7 7 8 10 15 18 19 18 18 19 20 22 23 23 24 25 24 23 20 18 15 12 9 5 3 7 10 11 11 11 12 12 11 10 9 8 8 8 9 11 14 15 16 16 17 18 18 18 16 16 17 16 13 14 16 16 17 18 19 19 19 18 18 18 18 18 18 19 19 19
1 3 2 6 7 7 5 1 2 1 1 3 4 3 6 6 5 4 5 2 7 10 8 7 7 6 6 6 6 6 10 14 16 18 19 19 20 21 22 23 23 24 25 26 26 23 20 18 17 15 11 7 6 6 6 7 6 7 7 7 6 6 6 7 7 7 9 10 12 14 16 17 17 18 18 18 18 14 11 11 12 14 16 19 19 19 19 18 18 18 18 18 18 18 19 19 19
2 2 1 3 2 5 6 1 0 1 0 1 3 2 6 8 4 5 7 3 7 9 7 6 6 6 6 6 6 6 8 12 15 19 21 21 21 22 23 23 24 25 26 28 27 26 23 20 19 17 15 13 11 9 7 6 5 4 2 2 4 5 5 7 7 8 9 10 11 13 15 15 15 15 15 16 16 11 9 10 10 11 15 17 17 17 17 17 17 17 17 17 17 18 18 19 19
2 1 3 3 1 5 9 3 2 1 1 3 3 3 6 8 2 6 8 5 10 9 6 6 6 7 6 5 6 5 6 11 17 21 22 22 22 23 23 23 25 25 26 27 27 27 26 24 22 20 19 17 15 14 12 11 9 8 7 5 2 1 1 3 6 6 5 5 5 5 7 8 8 9 10 11 11 9 10 10 10 11 14 15 15 15 15 15 15 16 16 16 17 17 18 19 19
3 0 4 3 2 3 7 3 1 0 1 4 2 2 4 6 0 7 9 7 10 9 6 7 7 6 6 5 5 5 6 9 15 21 23 22 22 22 22 23 24 25 26 27 28 29 28 27 25 24 23 21 19 17 16 15 15 14 13 12 10 10 10 11 12 12 13 13 13 12 10 9 8 7 6 6 7 8 9 9 10 11 13 13 14 14 13 13 13 14 14 15 16 16 17 18 19
3 1 3 4 3 2 3 3 3 4 3 3 3 1 6 8 3 10 11 7 10 9 6 6 6 5 5 5 5 6 6 7 10 17 22 21 22 22 23 24 25 26 27 27 28 28 29 29 28 28 27 25 24 23 22 22 22 22 22 22 20 20 20 20 18 16 16 17 16 17 15 13 12 11 10 9 7 7 8 8 8 8 9 9 10 12 12 12 12 13 13 14 14 16 17 18 18
4 2 3 3 3 3 4 5 3 5 4 2 2 2 9 11 5 10 9 7 9 8 5 5 5 5 5 5 5 5 6 7 9 15 19 20 22 23 24 25 26 27 27 27 27 27 28 28 28 29 28 28 28 27 27 26 26 26 26 26 26 26 26 24 22 21 21 20 19 19 18 17 16 15 15 14 12 11 11 10 9 8 9 9 8 8 9 10 11 11 12 13 14 15 16 17 18
5 5 4 3 4 4 5 5 4 1 3 5 4 5 9 9 5 7 6 6 8 6 5 4 4 4 4 5 5 5 6 6 9 15 18 20 22 23 24 25 26 28 28 28 28 28 28 27 27 28 27 27 27 27 27 27 27 27 27 26 27 28 27 25 25 24 24 22 20 19 18 19 18 17 17 16 16 15 14 13 13 12 12 11 11 10 10 10 10 11 12 13 14 15 16 17 17
4 4 3 4 4 5 4 4 6 1 1 6 4 4 8 7 4 5 4 5 7 5 5 4 4 4 4 5 5 5 5 5 9 15 19 21 22 23 24 25 27 29 29 29 29 29 29 28 28 28 26 24 24 25 25 25 26 26 27 27 28 28 27 26 26 25 25 24 21 20 20 19 17 17 17 16 16 15 14 14 13 13 12 11 11 10 9 9 9 9 9 10 11 13 15 16 16
3 2 1 3 4 6 5 2 5 2 2 4 1 3 9 5 3 5 4 5 5 4 4 4 4 4 4 5 5 5 4 5 9 15 19 21 22 23 25 26 28 28 28 29 29 29 28 29 29 29 28 26 26 26 25 25 26 26 28 29 29 29 29 28 28 27 26 24 23 22 22 20 19 18 17 16 15 15 15 14 13 12 11 11 10 9 9 9 8 8 7 8 8 9 11 12 14
2 2 1 4 3 4 6 3 5 4 1 4 3 3 8 3 4 5 5 5 4 3 4 3 3 4 4 4 5 5 5 6 8 11 15 18 20 22 25 26 27 26 27 27 28 29 29 28 28 28 28 28 28 28 27 28 28 28 29 30 30 31 31 30 29 28 26 25 25 24 23 22 21 20 19 18 17 16 16 15 15 13 12 11 10 9 9 9 9 9 8 8 7 7 7 8 10
3 3 3 4 2 1 3 3 4 3 1 2 3 4 6 2 3 5 5 3 4 4 4 4 4 4 4 4 4 5 5 6 6 7 11 16 19 22 24 24 24 26 27 28 28 29 29 29 28 27 26 26 26 26 27 28 29 29 30 30 30 30 30 28 27 27 26 26 26 25 25 23 22 22 21 20 19 18 17 17 16 15 14 13 11 10 10 10 10 9 9 9 8 7 7 6 8
3 5 6 5 3 5 6 3 4 3 2 1 3 4 5 4 2 2 3 3 3 4 4 5 5 4 4 4 5 5 5 4 5 6 9 13 17 19 21 21 23 26 27 27 27 28 29 30 29 28 27 26 25 24 24 24 25 26 27 27 27 28 28 28 28 29 29 28 28 28 27 24 23 23 22 22 21 20 20 19 18 17 17 16 14 13 12 11 11 10 10 9 8 8 6 6 7
4 5 9 9 7 7 5 3 4 4 4 3 4 3 5 4 2 3 2 2 3 3 4 4 4 4 4 4 4 4 4 4 5 6 8 11 14 16 19 21 24 26 25 25 26 27 29 31 31 30 30 29 27 26 23 23 25 26 26 27 28 30 31 30 30 31 32 32 31 30 28 26 25 24 24 23 23 22 22 21 20 19 19 19 18 17 16 15 15 13 12 11 10 9 7 7 7
2 4 8 9 6 5 3 2 2 1 2 2 3 1 5 5 2 3 3 3 3 3 3 3 3 3 3 3 4 4 4 4 5 6 8 11 12 15 19 21 22 23 23 24 26 28 31 33 33 33 32 31 30 29 27 27 30 31 33 34 34 33 32 29 29 31 32 32 31 31 31 30 29 28 27 26 25 24 24 23 22 21 21 21 20 19 19 19 18 17 15 14 12 11 9 9 9
3 4 4 6 6 6 5 5 4 2 2 3 2 2 4 5 3 1 3 4 2 1 1 1 1 2 3 3 3 3 4 4 4 5 7 10 12 14 16 18 19 20 22 24 26 29 33 35 36 35 35 34 32 32 31 31 33 35 36 37 36 35 33 30 30 32 32 31 31 32 32 32 31 31 30 30 29 27 26 25 24 23 23 23 22 21 21 20 18 17 17 16 15 14 13 11 11
4 2 5 6 6 6 5 6 3 0 2 4 4 1 2 6 3 1 2 2 2 3 3 3 3 1 2 3 3 3 3 4 4 4 5 8 10 12 14 16 17 20 23 25 26 29 33 35 36 36 36 35 34 33 34 34 34 35 36 37 36 34 32 31 31 31 31 30 31 31 31 31 30 30 30 30 29 29 28 27 26 26 25 25 24 23 23 22 21 20 19 17 16 15 14 14 13
3 5 6 5 5 5 4 5 3 2 1 4 6 4 2 5 4 1 1 3 4 5 5 5 5 3 2 2 2 3 3 3 4 4 4 6 8 11 13 16 18 20 23 25 27 29 32 33 34 35 35 34 33 33 33 34 33 34 35 35 34 32 31 31 30 31 30 30 31 31 30 30 29 29 28 28 28 27 27 26 26 26 25 25 24 24 24 23 23 23 21 20 18 17 16 15 14
5 5 5 6 5 5 4 2 3 2 3 5 6 6 4 4 5 3 3 3 5 7 5 5 5 5 4 3 2 2 2 2 2 3 4 6 8 10 13 16 18 21 23 25 27 28 30 31 32 33 33 31 31 31 31 32 32 32 33 32 32 31 30 30 31 31 30 30 30 30 29 28 28 28 27 26 26 25 25 24 24 23 23 23 23 23 23 22 22 22 21 21 20 20 19 17 16
4 3 4 3 3 4 4 4 3 1 5 4 2 1 2 4 5 4 5 4 5 7 8 9 9 7 5 4 4 3 3 2 1 1 2 4 7 10 12 15 18 20 22 24 26 27 29 29 30 32 32 30 30 30 30 31 31 31 30 30 30 29 29 29 30 30 29 28 28 27 27 27 27 27 26 26 26 24 23 23 23 22 22 22 22 22 21 21 20 20 20 20 20 20 20 19 19
4 4 5 3 2 4 3 3 0 3 5 3 1 1 2 6 6 5 6 5 4 4 5 9 11 10 7 6 5 4 3 3 2 1 1 3 5 8 11 14 16 17 20 22 25 26 28 29 30 32 31 29 29 29 29 30 30 29 28 28 28 27 27 28 28 27 27 27 26 26 27 26 26 26 26 26 25 24 23 23 23 23 23 23 22 21 21 21 20 20 20 20 19 19 20 19 19
4 4 4 3 2 3 2 3 2 4 4 2 2 1 2 5 4 4 5 4 4 4 4 6 9 10 9 7 5 4 4 3 3 3 2 3 5 6 9 12 14 16 19 21 24 25 27 28 29 31 30 28 28 28 28 29 28 27 26 26 26 25 26 26 26 26 25 25 25 26 26 25 25 25 25 24 24 23 23 23 23 23 23 23 22 22 21 21 21 20 20 20 20 19 19 19 19
4 4 5 5 4 3 3 3 2 4 4 3 2 1 3 3 2 3 5 4 3 3 4 4 6 5 6 5 5 4 4 4 4 3 4 5 6 7 9 12 14 16 18 21 23 24 26 27 28 29 28 26 26 26 26 27 26 25 24 24 24 24 24 25 25 24 23 24 24 24 24 24 23 23 22 22 22 22 22 22 22 22 22 22 22 22 22 22 22 21 21 21 21 21 20 20 20
1 3 4 3 4 4 2 2 5 2 3 3 2 2 4 3 1 3 2 2 3 2 3 7 7 5 5 5 5 5 5 5 4 4 5 6 7 8 10 12 14 16 18 20 22 23 25 26 26 27 26 25 24 24 24 24 23 23 23 23 22 22 23 23 23 22 22 22 23 23 23 23 22 22 21 21 21 22 22 22 22 22 22 23 23 23 24 24 24 24 24 24 24 23 23 22 22
2 2 3 4 3 6 3 1 1 4 1 4 1 2 5 1 1 3 2 2 3 3 4 7 7 7 7 6 6 6 5 5 5 5 6 7 8 9 11 12 14 16 18 19 20 21 23 24 24 25 24 23 22 22 22 21 21 21 21 21 21 20 20 20 20 20 20 20 21 21 22 22 22 22 22 22 21 22 22 23 23 23 23 24 24 25 25 25 25 26 26 26 26 26 26 25 25
5 3 5 3 2 4 4 1 3 3 3 4 1 3 4 1 2 3 2 0 1 3 5 6 6 7 7 7 6 6 6 6 5 5 7 9 10 10 12 13 14 16 17 18 19 20 21 21 22 22 22 21 21 20 20 19 19 19 18 18 18 18 18 18 18 18 18 19 20 21 21 22 23 23 23 23 23 23 23 24 24 24 25 25 25 26 26 26 27 27 27 28 28 28 28 28 28
5 4 2 3 2 1 2 2 2 2 4 4 3 3 3 4 4 2 3 7 7 6 6 7 10 10 9 8 7 7 7 6 6 6 6 9 11 12 13 13 14 16 17 17 18 18 19 20 19 20 20 19 19 18 17 17 16 16 16 15 15 15 15 15 16 16 17 18 19 20 21 22 23 24 24 24 25 25 26 27 27 28 28 28 28 28 28 28 28 28 28 29 29 29 30 31 30
3 2 2 2 2 4 2 2 2 3 3 4 5 5 4 5 5 6 9 10 10 10 9 11 13 12 9 8 9 8 8 7 7 6 6 9 13 13 14 15 15 16 16 17 17 18 18 18 18 18 18 17 16 15 15 14 14 13 12 12 12 11 11 12 13 14 15 17 18 19 20 21 22 23 24 25 25 26 27 28 29 29 30 30 31 30 30 30 30 29 29 29 29 29 30 31 31
2 2 0 0 1 1 1 1 2 3 2 2 4 6 6 4 3 6 7 7 10 13 13 12 11 11 11 10 10 9 9 8 8 7 7 10 14 14 15 15 15 16 16 16 16 17 17 17 17 17 16 14 13 12 12 11 11 9 9 9 8 8 7 9 10 11 13 15 16 18 19 20 21 22 24 24 25 25 26 27 27 28 29 29 30 31 31 31 31 31 31 30 30 30 30 31 31
4 5 5 5 3 2 1 3 1 2 2 4 3 7 8 4 2 4 4 4 8 11 11 10 11 13 13 12 10 10 9 9 8 7 8 11 14 16 17 16 16 16 16 16 16 16 16 15 15 14 13 12 11 10 9 8 7 6 5 5 4 4 4 6 8 10 13 14 16 18 19 21 22 23 24 25 25 26 27 28 28 28 29 29 30 30 30 31 31 32 32 32 31 31 31 31 31
Wind_Direction
326 331 326 318 319 312 322 50 72 331 72 77 327 33 253 231 250 293 286 287 322 244 227 283 164 131 152 175 195 200 179 173 170 120 215 239 308 250 186 181 165 173 182 179 177 182 181 178 181 184 188 188 188 188 187 191 191 194 199 199 188 179 167 161 164 161 156 154 149 144 143 141 141 140 144 147 142 140 135 132 129 129 129 123 113 107 100 99 101 100 98 95 95 95 94 93 94
329 331 333 319 323 351 259 76 92 340 52 72 290 171 263 294 343 239 233 227 216 249 288 273 221 73 54 102 153 141 253 223 191 176 268 273 308 244 189 181 173 172 182 182 178 182 184 181 181 185 189 190 192 194 193 195 195 199 203 203 193 179 169 167 170 168 161 158 153 147 147 143 144 144 142 145 143 139 136 137 136 137 137 130 117 106 97 97 100 96 99 100 97 97 100 100 100
330 328 339 322 326 38 64 44 86 46 72 86 285 243 289 2 236 237 227 224 228 275 309 260 210 146 79 21 43 124 292 271 231 223 280 279 295 244 192 184 165 167 182 184 181 183 187 185 183 186 191 193 194 196 198 200 199 202 203 206 198 179 174 175 174 176 167 161 156 152 152 147 148 145 144 147 145 143 137 138 143 148 141 130 118 105 98 96 91 83 92 95 74 72 83 89 100
329 328 339 325 58 38 60 42 126 112 105 169 314 270 257 197 236 256 244 246 256 301 332 6 323 221 123 357 300 139 291 278 236 200 277 305 281 278 192 186 169 166 180 187 186 186 189 189 186 188 193 195 195 196 200 203 203 206 206 208 202 181 180 182 180 182 171 166 164 162 159 152 154 153 155 158 158 155 144 146 154 158 145 131 117 109 104 101 90 80 78 64 16 347 327 308 287
329 327 343 7 126 40 94 72 108 92 166 183 43 289 252 219 243 274 264 278 277 233 137 87 333 289 109 231 166 152 262 259 275 217 253 328 292 263 187 190 182 170 181 189 190 190 192 192 190 190 194 197 196 197 201 204 204 209 210 211 204 184 186 188 186 186 174 172 171 166 161 157 161 162 166 168 171 162 152 161 163 160 153 133 115 109 102 94 79 61 21 357 349 340 327 307 287
343 320 6 54 104 97 106 83 98 36 221 176 124 269 268 234 232 276 292 300 270 175 160 96 323 328 341 265 200 206 230 107 323 231 250 316 296 242 188 194 192 180 183 191 194 195 194 194 194 192 196 198 197 200 202 204 205 209 213 214 205 188 190 193 191 186 179 180 173 167 167 166 171 174 178 175 174 169 161 165 167 159 154 133 115 115 84 39 36 40 341 330 332 330 324 311 291
6 333 13 58 60 36 93 115 170 233 216 175 188 254 273 258 230 301 326 328 28 113 74 139 175 78 290 296 306 246 238 237 271 261 284 295 276 224 190 195 196 189 187 193 198 199 198 197 197 196 197 198 198 202 205 204 205 209 215 216 206 193 194 197 194 186 185 187 177 173 177 176 183 188 188 185 180 173 166 166 172 160 148 139 131 167 51 57 41 14 330 322 322 320 320 312 292
17 11 46 78 38 28 87 122 213 215 185 225 235 244 266 267 211 272 325 326 341 329 356 293 191 94 285 1 333 266 280 258 267 283 285 281 254 210 192 197 199 194 191 196 201 203 201 199 200 199 199 201 200 204 207 205 205 209 215 217 208 197 197 200 197 191 190 192 184 183 188 189 198 201 197 194 185 176 173 170 170 163 156 155 160 193 121 95 349 340 325 314 313 315 321 315 292
23 28 124 72 83 33 52 59 263 238 269 263 263 258 270 268 186 173 297 295 300 287 308 283 102 23 296 354 286 280 343 297 293 290 281 265 238 206 197 201 206 202 195 196 202 205 203 202 203 203 202 203 203 205 210 208 206 208 214 218 212 201 198 202 201 196 196 197 192 189 194 199 209 212 209 202 191 183 180 178 176 172 170 177 188 211 238 293 312 332 314 301 305 310 321 319 293
29 25 116 65 88 48 11 271 279 249 262 260 269 263 261 259 184 182 247 294 299 268 300 263 126 318 300 317 282 312 346 326 329 301 271 242 230 211 204 207 213 211 202 199 201 205 205 205 205 206 206 206 205 205 210 211 208 209 213 217 216 208 201 203 203 200 201 202 197 196 199 202 214 219 218 210 199 193 188 193 200 190 183 196 217 253 290 308 315 319 297 292 300 306 318 318 296
25 360 92 74 72 83 196 228 283 276 282 286 284 266 240 206 93 294 227 292 319 326 302 78 99 234 353 305 268 307 331 331 332 281 267 237 234 219 212 213 217 213 208 206 203 206 207 208 208 209 209 209 208 208 211 212 210 211 214 217 217 214 206 205 205 203 205 205 200 199 202 205 217 221 222 217 205 199 196 210 221 208 206 226 255 288 301 309 309 304 294 293 299 303 313 314 299
48 345 61 83 119 185 191 213 281 290 307 326 345 318 198 144 91 274 260 285 350 350 289 195 153 166 61 310 269 302 350 2 232 227 252 234 245 230 220 221 222 216 210 211 209 209 209 211 212 212 212 212 212 212 214 214 214 214 216 219 219 219 213 208 208 208 209 208 203 201 204 208 217 222 224 219 210 206 203 215 218 214 230 258 287 297 301 305 304 303 298 295 298 302 311 310 297
100 119 76 83 154 156 149 200 277 311 329 337 299 318 142 143 214 231 225 296 359 3 302 223 166 84 351 269 293 316 359 15 131 205 228 227 246 233 228 229 229 224 212 213 214 214 214 215 216 216 215 215 216 215 217 217 217 217 219 222 222 223 219 214 211 211 213 210 207 206 208 212 218 224 226 221 214 211 209 217 220 227 248 270 288 292 297 303 305 307 304 298 297 302 310 304 290
129 150 104 101 77 133 165 228 308 360 296 273 277 310 338 221 215 192 149 337 282 213 309 248 148 84 276 293 325 301 334 357 355 236 231 223 240 237 236 235 235 232 222 219 218 218 218 219 220 221 219 217 218 218 220 221 220 221 222 225 225 226 224 220 217 216 216 212 210 212 214 217 222 224 225 223 218 216 216 221 229 239 255 273 287 292 300 306 308 311 307 301 299 303 306 294 284
128 130 90 107 38 360 190 225 105 130 243 266 300 315 331 282 162 147 171 290 275 219 289 292 141 225 264 306 293 258 312 345 344 292 255 235 241 239 240 237 238 235 231 228 223 224 221 223 223 223 223 219 220 220 221 223 223 223 225 227 227 229 228 225 223 221 221 216 214 217 219 221 225 227 228 227 222 225 225 226 235 245 260 278 291 299 307 308 309 313 308 303 302 302 298 281 274
117 111 67 84 55 321 217 184 125 124 247 248 281 325 339 304 113 114 233 155 283 298 3 263 209 302 183 200 261 278 319 330 328 310 282 254 242 235 238 236 238 236 235 233 229 228 224 225 225 225 226 222 221 221 222 224 225 225 227 229 230 230 229 229 227 224 225 223 219 221 225 226 229 231 231 232 230 231 231 234 242 248 264 282 293 302 307 306 308 312 309 304 303 302 288 269 268
72 79 65 44 180 222 212 189 171 160 260 270 322 24 15 306 316 292 255 112 284 317 352 265 254 214 196 227 293 315 323 324 319 307 292 268 247 236 237 237 241 239 236 236 235 234 230 229 228 227 228 225 224 222 223 224 226 227 227 230 232 232 230 231 231 227 227 228 226 226 229 231 232 236 235 233 231 231 235 240 244 249 268 284 292 299 301 302 307 310 310 306 304 301 276 259 261
55 79 92 320 202 199 187 184 196 176 280 279 329 29 14 298 311 319 312 10 343 328 309 277 285 278 259 286 321 328 328 330 324 309 299 290 282 265 260 258 256 251 243 242 243 240 237 235 233 232 231 228 225 224 224 225 227 228 228 228 230 234 234 232 231 230 230 231 231 231 234 237 237 239 238 232 230 232 235 240 245 251 268 281 288 295 296 298 304 307 308 304 304 301 271 258 259
82 113 105 236 203 211 197 179 198 198 276 282 299 328 203 252 282 349 314 302 342 333 301 298 293 297 310 313 325 333 335 338 338 332 323 325 333 331 323 316 298 279 261 252 251 248 244 240 239 237 236 233 229 225 224 226 228 229 229 228 229 234 237 236 234 231 231 232 232 233 236 240 242 244 242 234 232 234 236 241 248 253 265 283 292 291 290 294 299 304 303 301 308 302 271 261 261
136 119 113 244 212 234 232 192 207 219 271 305 297 308 224 246 244 342 304 293 313 288 278 307 304 307 313 309 334 351 359 5 9 11 2 355 354 350 340 330 317 303 286 269 260 256 252 247 243 240 239 237 234 229 225 226 228 231 230 228 229 232 237 240 240 235 234 235 234 235 237 240 243 243 243 238 237 239 238 238 241 252 269 289 293 282 283 289 294 298 298 301 310 305 273 261 259
135 135 184 228 189 250 244 202 220 231 208 255 294 340 303 278 186 186 344 326 301 269 243 238 272 293 303 320 357 15 23 24 24 25 21 12 6 4 356 345 330 316 300 282 270 265 261 256 250 243 240 238 236 233 227 226 228 232 233 231 230 230 235 237 238 239 237 238 238 238 239 240 241 242 241 238 241 242 237 236 244 259 277 289 282 277 280 285 291 294 298 301 306 306 281 262 257
138 213 200 191 150 251 252 203 216 202 146 236 318 322 294 313 259 198 175 283 278 316 294 204 244 285 332 10 14 24 30 26 24 23 20 14 9 7 1 356 348 338 324 303 287 273 265 262 257 248 243 238 236 234 230 228 227 229 233 235 234 233 236 235 236 243 243 240 239 242 243 238 238 240 238 236 238 235 231 240 253 264 281 288 278 274 279 285 290 293 297 299 301 304 290 271 261
178 268 262 215 171 227 265 232 215 143 91 276 271 291 313 349 308 251 213 244 252 2 15 91 55 44 63 55 36 30 29 23 22 19 16 13 8 6 1 359 356 350 344 335 318 289 266 258 258 251 245 240 235 233 231 229 227 228 229 234 237 234 237 237 234 239 243 243 239 239 242 239 236 232 231 237 240 236 237 246 254 267 279 277 267 269 281 287 289 292 295 297 298 299 295 283 271
139 263 300 268 183 217 259 292 293 122 228 252 247 321 312 290 295 324 273 263 1 358 31 67 64 57 60 56 43 36 30 22 19 17 19 17 10 8 7 5 3 359 355 352 344 316 278 255 255 253 246 241 236 231 229 229 228 228 229 231 235 235 238 239 237 235 233 239 247 244 241 240 238 237 236 238 241 243 243 243 254 277 273 259 256 273 283 285 287 291 293 295 297 297 296 290 280
163 224 273 282 208 239 268 291 290 277 253 251 300 290 266 249 255 315 293 350 50 29 50 60 62 54 50 48 39 32 29 22 14 12 16 16 13 16 17 14 12 10 5 1 359 349 309 253 255 255 248 241 236 231 227 227 227 227 229 231 235 239 243 247 254 253 236 230 238 242 248 244 237 241 240 234 239 240 235 240 259 270 260 249 263 283 285 285 287 289 292 295 296 296 297 294 286
210 203 250 291 290 285 298 292 272 252 248 205 265 274 270 266 241 283 306 36 63 60 57 48 59 55 46 44 37 31 28 20 12 10 13 15 18 18 16 16 17 15 11 10 11 8 355 290 260 258 252 242 234 230 226 225 224 224 227 231 235 240 245 248 251 257 254 246 235 234 243 242 238 238 233 235 244 239 242 264 272 266 260 264 279 287 287 284 283 286 291 294 295 295 295 294 289
191 188 253 264 291 299 300 288 280 194 248 203 220 272 287 338 310 257 346 6 74 72 57 43 62 57 45 43 35 33 31 23 14 15 16 16 18 14 11 13 16 18 18 21 22 20 12 352 303 265 249 238 229 226 225 224 223 223 226 231 238 241 243 246 246 247 256 261 250 245 242 236 240 235 223 232 244 245 269 282 283 283 285 290 288 287 285 281 280 284 287 291 294 293 292 291 290
132 157 300 287 310 302 256 271 283 216 260 199 185 263 306 18 271 210 339 345 62 78 60 45 58 51 43 41 33 34 29 24 20 25 22 14 13 10 11 13 14 21 26 27 31 33 32 31 30 6 245 223 217 216 220 222 223 223 226 230 236 242 245 251 256 258 261 260 247 245 249 242 246 238 219 231 254 261 261 259 275 283 287 293 289 283 280 278 278 281 284 288 291 291 291 291 291
67 48 330 303 343 323 270 271 292 160 225 170 153 285 313 221 224 255 350 24 73 73 60 47 51 44 41 35 35 36 25 24 25 26 20 15 16 16 18 19 20 28 32 36 41 46 46 47 53 57 67 162 191 199 206 212 219 222 229 238 246 259 273 280 279 270 270 276 261 252 263 259 257 252 236 242 261 262 251 253 277 282 284 286 281 276 275 275 278 281 284 287 289 292 293 292 292
325 39 19 310 353 327 286 37 7 34 193 163 148 284 287 254 252 306 335 55 80 66 56 46 45 40 36 30 33 33 25 25 24 22 18 19 22 23 26 27 32 37 41 46 50 53 56 59 63 67 73 90 122 155 178 189 203 216 232 243 251 262 276 276 264 252 249 258 263 262 267 264 259 260 256 254 257 256 259 275 287 287 286 283 279 277 275 277 281 284 286 287 290 293 295 295 293
319 338 24 345 349 283 293 324 49 11 46 130 135 201 264 274 312 349 328 12 86 75 54 44 44 36 31 28 30 28 25 26 24 22 21 22 25 29 32 33 39 45 49 53 55 59 64 68 72 75 80 84 91 100 111 119 128 133 148 202 222 232 243 257 260 258 252 248 253 259 264 266 263 263 264 263 258 259 283 295 296 295 290 287 286 284 282 284 285 286 287 289 291 294 296 297 296
23 316 303 340 189 267 310 313 173 168 348 42 112 184 270 275 319 10 346 39 87 83 57 45 44 34 32 27 26 25 17 23 26 23 22 23 26 31 34 37 43 48 53 58 62 65 69 73 78 82 84 87 92 96 102 106 109 113 109 104 103 81 44 351 10 19 8 0 347 326 303 293 286 277 270 268 267 275 288 290 292 292 287 287 288 286 286 286 286 287 288 290 292 295 297 298 299
355 119 253 272 213 278 322 326 358 18 29 34 64 193 286 276 296 25 15 53 82 82 64 47 42 33 34 25 23 26 15 19 21 18 18 21 27 33 36 40 45 51 56 61 66 68 71 74 79 82 85 88 92 95 99 101 101 103 100 95 89 78 71 61 52 48 45 41 38 36 26 13 5 352 326 304 295 291 291 288 287 283 279 282 284 284 285 285 287 287 289 290 291 295 297 299 301
304 25 227 251 218 224 305 306 347 28 69 31 5 217 258 270 346 26 15 43 78 79 65 50 45 34 33 28 27 27 23 25 15 10 13 19 28 36 41 44 50 55 58 63 67 70 73 76 81 84 87 90 92 94 94 94 95 94 92 88 87 83 78 74 70 63 59 57 55 53 49 43 36 30 22 9 354 340 334 328 318 308 303 301 295 290 286 284 283 282 286 290 291 295 297 299 302
222 199 199 256 241 220 257 268 306 17 21 332 314 263 260 274 347 27 11 40 77 80 73 66 53 42 36 33 33 28 26 30 15 11 16 24 32 38 44 48 52 56 59 63 68 72 75 78 83 86 90 93 94 97 97 97 96 93 92 90 86 83 80 76 73 71 68 65 62 60 57 55 51 49 46 40 35 28 20 15 12 10 4 1 351 335 321 310 303 299 296 296 297 298 298 299 299
193 182 159 198 237 249 240 246 269 333 343 296 254 250 266 280 341 21 4 42 77 81 74 65 49 46 41 36 33 29 33 26 12 19 28 33 37 41 46 50 53 57 60 63 67 70 72 75 81 83 86 93 97 98 98 98 97 94 91 88 84 81 79 77 74 73 71 68 65 62 58 55 52 51 50 47 45 43 41 38 35 32 26 22 19 12 2 351 342 334 327 319 314 309 306 304 302
136 140 145 194 225 268 256 248 281 244 203 278 252 257 273 278 340 5 351 47 66 61 66 63 51 49 39 41 35 28 33 19 18 29 36 38 42 46 49 52 56 59 59 62 65 65 67 72 75 76 79 87 92 92 93 93 93 93 90 87 83 81 81 80 76 73 71 70 68 65 62 58 54 52 50 46 45 43 43 40 37 36 32 28 24 22 16 8 358 351 348 341 335 330 323 318 315
111 140 228 267 230 258 274 263 301 343 168 266 335 313 279 279 10 1 7 55 48 32 67 67 56 57 43 45 37 25 20 10 23 30 33 38 42 47 51 53 55 56 56 59 62 64 68 72 73 74 78 82 83 84 88 89 89 90 90 90 87 83 80 80 77 74 72 72 68 65 64 61 58 57 53 50 47 44 41 39 39 40 40 38 34 30 24 19 14 7 3 356 351 346 336 328 326
195 147 218 278 245 269 299 323 345 19 157 270 355 324 278 297 50 28 29 62 53 30 65 63 57 62 43 40 34 25 21 14 21 24 26 32 39 46 51 52 54 56 58 61 64 68 71 72 74 77 81 83 84 86 88 88 91 93 93 92 90 85 80 79 80 77 75 73 69 67 64 61 59 59 56 54 52 50 48 45 44 41 40 39 36 34 31 29 26 21 18 10 1 353 343 333 330
201 164 177 250 241 247 283 306 341 17 125 263 344 318 286 296 78 61 45 71 77 50 59 58 55 63 50 49 44 32 28 17 14 17 20 27 35 43 48 50 54 58 60 62 65 69 71 72 76 79 82 84 86 88 91 93 94 94 94 92 91 88 83 82 81 76 73 71 68 65 62 61 60 59 57 55 54 54 53 53 52 48 46 44 40 39 37 35 32 27 24 18 12 5 353 337 332
239 198 197 224 218 212 232 285 330 352 19 20 21 331 294 269 229 122 71 67 63 38 47 52 39 46 54 55 49 40 37 21 16 19 14 22 33 41 47 52 57 59 60 62 66 70 73 76 78 80 82 84 86 89 94 99 100 98 98 95 91 86 78 74 71 67 67 66 64 62 60 59 59 58 56 55 54 54 53 53 53 52 52 50 47 46 44 39 34 30 26 23 18 11 359 343 334
283 231 209 219 215 212 238 338 15 15 351 356 31 341 293 295 269 177 136 61 39 20 37 47 28 31 43 44 38 30 32 28 25 27 19 25 36 44 51 55 59 62 63 66 71 76 79 81 81 82 82 82 85 88 93 98 97 95 93 87 81 75 68 64 63 64 65 66 65 64 62 60 58 57 56 54 53 53 52 51 50 51 51 49 48 46 43 39 33 29 26 23 20 13 2 349 339
291 246 205 211 193 171 186 134 80 76 261 322 42 235 273 296 282 198 147 87 52 34 39 37 25 33 42 41 34 24 24 23 23 26 25 29 36 44 50 54 60 65 68 72 76 79 83 84 84 83 83 83 84 85 88 90 89 87 85 82 78 76 73 69 69 70 70 70 69 67 65 62 60 59 57 56 54 52 51 50 48 48 47 46 45 42 39 36 31 29 25 22 21 17 10 359 350
244 242 153 156 159 166 174 152 158 214 247 326 355 156 264 281 270 242 135 114 64 37 44 18 19 43 47 41 35 35 27 20 22 20 21 28 39 48 54 59 66 72 77 78 79 81 84 85 85 85 84 84 85 85 85 84 85 86 86 84 81 79 78 76 75 74 73 73 71 68 66 64 62 61 59 58 56 54 53 51 49 48 46 44 42 39 36 30 25 21 18 18 18 17 16 8 2
249 215 121 128 142 150 135 124 152 277 31 309 287 152 261 270 275 331 135 166 240 219 213 220 213 200 91 68 47 41 31 28 30 21 19 33 49 60 67 74 78 82 84 84 84 85 87 88 88 87 86 86 86 86 85 85 86 87 87 86 83 80 79 78 77 75 72 71 69 67 65 64 62 61 59 58 57 55 54 53 52 50 48 46 44 42 39 33 28 22 16 14 12 12 14 10 6
207 131 99 75 75 83 81 106 128 58 26 250 233 181 215 275 281 258 195 250 238 204 214 223 213 211 172 119 91 66 45 33 28 28 39 54 69 79 86 89 89 90 91 92 92 91 91 91 90 88 87 88 88 87 87 87 87 87 86 85 84 81 79 77 74 71 68 66 65 62 60 59 58 57 56 55 54 53 52 51 50 50 48 47 45 43 42 39 36 32 27 23 19 16 13 10 7
148 111 67 45 39 43 40 64 94 70 280 253 226 195 192 267 280 225 199 228 187 166 189 214 210 209 196 178 163 132 86 51 19 29 56 76 90 97 98 98 97 98 99 99 98 97 95 94 93 92 91 91 90 89 89 87 86 85 84 83 81 79 76 73 70 65 62 61 60 57 56 55 53 52 51 51 50 49 48 48 47 47 46 44 43 41 40 39 36 33 32 29 27 25 21 17 13
112 91 67 51 349 12 20 358 48 124 250 265 285 255 180 232 261 238 219 226 185 171 182 188 189 194 193 190 184 168 149 131 63 34 74 95 103 106 106 104 103 103 103 102 101 100 99 99 98 97 95 94 93 91 90 88 86 85 84 82 80 77 74 71 68 64 60 58 56 53 51 50 48 46 44 44 43 42 43 43 43 42 42 41 39 38 36 35 33 29 27 26 25 24 21 19 17
83 91 82 70 339 7 1 313 260 213 245 264 329 21 211 238 247 223 210 220 219 217 206 185 180 182 185 188 183 173 166 157 154 165 151 124 122 118 113 109 108 106 105 104 104 103 103 102 101 99 97 96 95 93 91 89 87 85 84 82 80 76 73 70 67 64 60 56 54 50 47 44 41 39 37 36 35 35 36 36 36 36 35 34 32 31 29 27 26 23 21 20 18 17 16 13 12
141 142 120 121 96 56 308 277 284 278 272 272 273 209 232 270 268 213 215 235 244 254 255 206 179 176 177 177 174 172 171 172 180 197 204 178 154 136 122 117 114 112 110 109 108 107 106 104 102 101 100 98 96 93 91 89 87 85 82 80 77 74 71 67 64 60 56 53 50 47 43 40 37 33 30 29 27 26 28 28 28 27 26 25 22 21 19 17 16 15 13 11 9 8 7 6 5
167 157 129 140 148 154 237 238 232 277 291 292 287 186 193 230 236 222 235 264 290 272 230 174 149 151 154 153 161 171 178 186 199 209 210 197 170 148 135 128 123 119 117 115 113 112 110 107 105 103 102 99 96 93 91 88 87 84 80 77 74 71 68 65 61 56 52 49 46 43 40 35 32 28 25 23 20 19 19 19 18 17 16 14 12 10 9 7 6 4 2 1 360 358 357 356 355
189 132 111 149 178 160 193 203 169 184 304 292 238 209 222 197 192 290 279 314 359 22 140 139 136 141 145 160 178 182 189 196 201 208 214 205 181 160 146 136 131 127 123 121 118 117 114 111 108 106 104 101 97 94 91 89 87 83 79 75 72 68 65 61 58 53 47 43 40 37 34 29 25 22 18 16 14 13 12 11 9 8 6 5 3 2 0 358 357 356 354 353 352 351 350 348 347
151 126 172 211 183 128 114 276 75 82 282 272 206 239 286 334 336 322 10 41 37 73 140 152 156 162 168 186 193 189 198 200 201 207 209 202 184 167 153 142 137 133 129 125 122 120 118 115 113 110 107 104 100 96 93 90 86 82 78 73 69 64 60 56 52 47 40 35 32 29 27 23 19 15 12 10 8 7 5 3 1 359 358 357 356 355 354 352 351 350 349 349 348 347 344 343 343
124 175 208 192 131 92 98 251 351 41 250 273 243 223 264 271 269 323 25 293 217 177 177 166 166 179 189 198 198 199 204 203 208 212 209 204 188 171 159 148 142 137 132 129 127 124 121 118 116 114 111 108 105 100 95 90 85 81 77 72 67 61 55 49 42 37 30 24 22 20 17 15 12 8 5 2 360 359 358 356 354 353 352 351 351 350 349 348 346 345 344 343 343 342 339 338 338
119 182 192 117 139 128 86 156 231 249 251 283 297 270 251 210 213 216 208 216 204 190 187 182 188 195 196 199 201 206 206 205 213 211 208 206 193 176 163 154 146 141 137 135 133 130 127 124 120 117 113 110 107 102 97 91 84 79 75 69 63 56 48 40 33 26 19 14 13 10 7 6 4 1 358 356 354 352 351 350 349 349 348 348 348 348 347 346 345 343 341 339 338 337 335 333 332
67 93 39 49 150 164 153 152 174 209 248 283 296 303 276 228 202 181 201 205 184 179 191 197 200 196 194 198 199 203 204 203 206 202 200 201 193 181 168 160 154 148 145 143 140 137 134 131 127 122 118 114 110 104 96 89 83 77 72 66 58 50 40 30 22 15 9 7 5 1 359 358 356 353 352 350 348 346 344 343 343 343 343 343 343 344 344 344 343 342 341 339 337 335 333 330 328
113 112 126 265 122 115 225 235 127 147 189 230 275 284 270 251 192 181 207 206 182 183 190 197 200 195 198 204 200 199 201 202 204 198 194 196 191 183 173 167 162 157 154 151 148 145 142 138 134 128 122 117 111 103 95 90 86 81 73 65 52 41 29 15 7 2 359 359 357 354 352 351 349 347 346 344 342 341 339 338 338 337 337 337 337 338 338 338 338 338 337 336 335 333 331 328 326
158 177 197 187 161 122 212 257 214 118 179 187 215 268 270 256 194 192 212 208 196 195 193 195 198 197 200 205 201 199 199 202 203 195 188 189 188 184 179 175 173 170 167 163 160 155 150 147 141 133 126 121 116 110 105 101 96 88 79 67 42 22 6 351 348 349 350 350 350 348 345 343 343 342 341 340 338 337 336 336 336 335 335 335 335 335 335 335 334 334 333 332 332 331 328 326 324